Tracking 19246 objects as of 21-Sep-2018
HD Live streaming from Space Station
objects crossing your sky now

FENGYUN 1C DEB

Track FENGYUN 1C DEB now!
10-day predictions


NORAD ID: 30942
Int'l Code: 1999-025BAG
Perigee: 755.5 km
Apogee: 961.3 km
Inclination: 98.8 °
Period: 102.0 minutes
Semi major axis: 7229 km
RCS: 0.0141 m2 (small)
Launch date: May 10, 1999
Source: People's Republic of China (PRC)
Launch site: Taiyaun Space Center, China (TSC)

Note: This is SATELLITE DEBRIS
aabbcc
Your satellite tracking list
Your tracking list is empty




NASA's NSSDC Master Catalog

Two Line Element Set (TLE):
1 30942U 99025BAG 18263.06792833  .00000036  00000-0  38792-4 0  9993
2 30942  98.8227 292.1230 0142343  69.1255 346.4614 14.12362977593579
Source of the keplerian elements: AFSPC